Location: ????????
(55.0097°N, 38.5678°E)
Time: 14:28:30
(UTC+00:00)

YAOGAN 11 - Pass Details

Date: 14 April 2024
Orbit: 606 x 659 km, 98.4° (Epoch: 17 May)

Event Time Altitude Azimuth Distance (km) Brightness Sun altitude
Rises 01:42:38 0° 162° (SSE) 2,959 7.5 -6.4°
Reaches altitude 10° 01:44:50 10° 162° (SSE) 2,059 6.7 -6.1°
Maximum altitude 01:49:20 90° 219° (SW) 666 4.3 -5.5°
Drops below altitude 10° 01:53:56 10° 344° (NNW) 2,091 6.9 -4.9°
Sets 01:56:10 0° 345° (NNW) 3,009 7.7 -4.6°
